ICEYE-X31

导读

ICEYE-X31是芬兰冰眼(ICEYE)公司研制的合成孔径雷达成像卫星,属于ICEYE星座扩容任务,于2023年11月11日发射入轨。该卫星继承了冰眼卫星系列紧凑高效的技术路线,可穿透云层实现全天时对地观测,为全球用户提供高分辨率近实时SAR影像,服务于灾害监测、资源勘探等领域,进一步增强了ICEYE星座的对地观测重访能力。

基本信息
目录编号:
58288
目录名称:
ICEYE-X31
国际标识:
2023-174AJ
轨道中心:
EARTH
卫星名称:
ICEYE-X31
卫星全名:
--
卫星状态:
在轨 (已飞行1035 天)
发射日期:
2023-11-11 UTC
国别 :
(FI)
星等 :
--
轨道信息
数据来源 国际轨道数据
星历时间: 2026-09-10T20:01:30+0800
15小时前
查看轨道信息
半长轴: 6833.617km
偏心率: 0.0002675
轨道倾角: 97.372°
近地点辐角 48.636°
升交点赤经 329.342°
平近点角 311.512°
近地点: 453.652km
远地点: 457.308km
周期: 93.699分钟
每日圈数: 15.368337
详细信息
使用方式:
暂无
2D轨道图
3D轨道图
轨道高度分析图
轨道倾角分析图
轨道综合分析图
查看轨道综合分析图
交会数据列表
事件ID 空间交会对象 最接近时刻(TCA) 交会距离 交会风险概率(CRP) 交会风险指数(CRI) 操作
CDM_260911-184205-479305-828822
2026-09-11T
18:42:54+0000
1.162 km
极远距离
1.207316E-5 中风险 0.57
CDM_260913-033105-181405-828822
2026-09-13T
03:31:06+0000
1.422 km
极远距离
7.61937E-6 低风险 0.53
CDM_260911-155505-329105-828822
2026-09-11T
15:55:32+0000
2.833 km
极远距离
1.181874E-6 低风险 0.36
与全量物体交会距离演化趋势
与全量物体交会风险概率演化趋势